| time (UTC) | temp F | wind direction | speed MPH | gust MPH | rain 1hr in | rain 24hr in | rain mn in | humidity % | barometer mb |
| 20260906221128 | 70 | 341 | 2.0 | 4.0 | 0.00 | 0.00 | 0.00 | 95 | 911.6 |
| 20260906221126 | 70 | 342 | 2.0 | 4.0 | 0.00 | 0.00 | 0.00 | 95 | 911.6 |
| 20260906220625 | 70 | 22 | 3.0 | 4.0 | 0.00 | 0.00 | 0.00 | 95 | 911.6 |
| 20260906220526 | 70 | 25 | 3.0 | 4.0 | 0.00 | 0.00 | 0.00 | 95 | 911.6 |
| 20260906220125 | 70 | 27 | 3.0 | 4.0 | 0.00 | 0.00 | 0.00 | 95 | 911.6 |
| 20260906215926 | 70 | 5 | 3.0 | 4.0 | 0.00 | 0.00 | 0.00 | 94 | 911.6 |
| 20260906215625 | 70 | 14 | 3.0 | 4.0 | 0.00 | 0.00 | 0.00 | 94 | 911.6 |
| 20260906215326 | 70 | 36 | 3.0 | 4.0 | 0.00 | 0.00 | 0.00 | 94 | 911.6 |
| 20260906215125 | 70 | 19 | 3.0 | 4.0 | 0.00 | 0.00 | 0.00 | 94 | 911.6 |
| 20260906214726 | 70 | 14 | 3.0 | 4.0 | 0.00 | 0.00 | 0.00 | 94 | 911.6 |
| 20260906214127 | 70 | 11 | 3.0 | 5.0 | 0.00 | 0.00 | 0.00 | 95 | 911.5 |
| 20260906214125 | 70 | 14 | 3.0 | 5.0 | 0.00 | 0.00 | 0.00 | 95 | 911.5 |
| 20260906213625 | 70 | 360 | 4.0 | 5.0 | 0.00 | 0.00 | 0.00 | 95 | 911.6 |
| 20260906213526 | 70 | 0 | 4.0 | 5.0 | 0.00 | 0.00 | 0.00 | 95 | 911.5 |
| 20260906213125 | 70 | 14 | 4.0 | 5.0 | 0.00 | 0.00 | 0.00 | 94 | 911.5 |
| 20260906212926 | 70 | 27 | 3.0 | 4.0 | 0.00 | 0.00 | 0.00 | 94 | 911.5 |
| 20260906212625 | 70 | 24 | 3.0 | 4.0 | 0.00 | 0.00 | 0.00 | 94 | 911.5 |
| 20260906212326 | 70 | 21 | 3.0 | 4.0 | 0.00 | 0.00 | 0.00 | 94 | 911.4 |
| 20260906212125 | 70 | 12 | 3.0 | 4.0 | 0.00 | 0.00 | 0.00 | 94 | 911.4 |
| 20260906211726 | 70 | 13 | 0.0 | 3.0 | 0.00 | 0.00 | 0.00 | 94 | 911.4 |
| 20260906211625 | 70 | 16 | 3.0 | 5.0 | 0.00 | 0.00 | 0.00 | 94 | 911.4 |
| 20260906211127 | 70 | 53 | 4.0 | 6.0 | 0.00 | 0.00 | 0.00 | 94 | 911.4 |
| 20260906211125 | 70 | 34 | 4.0 | 6.0 | 0.00 | 0.00 | 0.00 | 95 | 911.4 |
| 20260906210625 | 70 | 24 | 5.0 | 6.0 | 0.00 | 0.00 | 0.00 | 95 | 911.4 |
| 20260906210526 | 70 | 24 | 5.0 | 6.0 | 0.00 | 0.00 | 0.00 | 95 | 911.4 |
| 20260906210125 | 70 | 15 | 0.0 | 5.0 | 0.00 | 0.00 | 0.00 | 95 | 911.4 |
| 20260906205926 | 70 | 360 | 5.0 | 6.0 | 0.00 | 0.00 | 0.00 | 95 | 911.4 |
| 20260906205625 | 70 | 360 | 4.0 | 5.0 | 0.00 | 0.00 | 0.00 | 94 | 911.4 |
| 20260906205326 | 71 | 5 | 5.0 | 5.0 | 0.00 | 0.00 | 0.00 | 93 | 911.3 |
| 20260906205125 | 71 | 20 | 4.0 | 5.0 | 0.00 | 0.00 | 0.00 | 93 | 911.4 |
| 20260906204726 | 71 | 25 | 4.0 | 5.0 | 0.00 | 0.00 | 0.00 | 93 | 911.4 |
| 20260906204625 | 70 | 22 | 4.0 | 5.0 | 0.00 | 0.00 | 0.00 | 94 | 911.3 |
| 20260906204126 | 70 | 23 | 4.0 | 5.0 | 0.00 | 0.00 | 0.00 | 94 | 911.3 |
| 20260906204124 | 70 | 25 | 4.0 | 5.0 | 0.00 | 0.00 | 0.00 | 94 | 911.3 |
| 20260906203625 | 70 | 28 | 4.0 | 5.0 | 0.00 | 0.00 | 0.00 | 95 | 911.3 |
| 20260906203526 | 70 | 22 | 4.0 | 5.0 | 0.00 | 0.00 | 0.00 | 95 | 911.3 |
| 20260906203124 | 70 | 22 | 3.0 | 5.0 | 0.00 | 0.00 | 0.00 | 95 | 911.3 |
| 20260906202926 | 70 | 11 | 3.0 | 5.0 | 0.00 | 0.00 | 0.00 | 95 | 911.3 |
| 20260906202624 | 70 | 26 | 4.0 | 6.0 | 0.00 | 0.00 | 0.00 | 95 | 911.3 |
| 20260906202326 | 70 | 26 | 5.0 | 6.0 | 0.00 | 0.00 | 0.00 | 95 | 911.3 |
| 20260906202124 | 70 | 39 | 4.0 | 7.0 | 0.00 | 0.00 | 0.00 | 95 | 911.2 |
| 20260906201726 | 70 | 37 | 5.0 | 7.0 | 0.00 | 0.00 | 0.00 | 95 | 911.2 |
| 20260906201624 | 70 | 34 | 5.0 | 7.0 | 0.00 | 0.00 | 0.00 | 95 | 911.2 |
| 20260906201127 | 70 | 38 | 6.0 | 6.0 | 0.00 | 0.00 | 0.00 | 95 | 911.2 |
| 20260906201125 | 70 | 46 | 6.0 | 6.0 | 0.00 | 0.00 | 0.00 | 95 | 911.2 |
| 20260906200624 | 70 | 42 | 5.0 | 6.0 | 0.00 | 0.00 | 0.00 | 95 | 911.1 |
| 20260906200526 | 70 | 42 | 5.0 | 6.0 | 0.00 | 0.00 | 0.00 | 95 | 911.1 |
| 20260906195926 | 70 | 21 | 5.0 | 6.0 | 0.00 | 0.00 | 0.00 | 95 | 911.2 |
| 20260906195624 | 70 | 27 | 6.0 | 6.0 | 0.00 | 0.00 | 0.00 | 95 | 911.2 |
| 20260906195325 | 70 | 38 | 5.0 | 6.0 | 0.00 | 0.00 | 0.00 | 95 | 911.1 |
| 20260906195124 | 70 | 37 | 5.0 | 6.0 | 0.00 | 0.00 | 0.00 | 95 | 911.1 |
| 20260906194725 | 70 | 32 | 5.0 | 6.0 | 0.00 | 0.00 | 0.00 | 95 | 911.0 |
| 20260906194625 | 70 | 38 | 5.0 | 6.0 | 0.00 | 0.00 | 0.00 | 95 | 911.1 |
| 20260906194126 | 70 | 19 | 4.0 | 5.0 | 0.00 | 0.00 | 0.00 | 96 | 911.1 |
| 20260906194124 | 70 | 26 | 4.0 | 5.0 | 0.00 | 0.00 | 0.00 | 96 | 911.1 |
| 20260906193624 | 70 | 12 | 4.0 | 5.0 | 0.00 | 0.00 | 0.00 | 96 | 911.1 |
| 20260906193525 | 70 | 7 | 4.0 | 5.0 | 0.00 | 0.00 | 0.00 | 96 | 911.1 |
| 20260906193124 | 70 | 25 | 5.0 | 5.0 | 0.00 | 0.00 | 0.00 | 96 | 911.1 |
| 20260906192925 | 70 | 26 | 4.0 | 5.0 | 0.00 | 0.00 | 0.00 | 96 | 911.1 |
| 20260906192624 | 70 | 44 | 5.0 | 6.0 | 0.00 | 0.00 | 0.00 | 96 | 911.1 |
| 20260906192325 | 70 | 31 | 5.0 | 6.0 | 0.00 | 0.00 | 0.00 | 96 | 911.0 |
| 20260906192124 | 70 | 41 | 5.0 | 6.0 | 0.00 | 0.00 | 0.00 | 96 | 911.1 |
| 20260906191725 | 70 | 42 | 5.0 | 6.0 | 0.00 | 0.00 | 0.00 | 96 | 911.0 |
| 20260906191624 | 70 | 32 | 5.0 | 6.0 | 0.00 | 0.00 | 0.00 | 96 | 911.0 |
| 20260906191127 | 70 | 31 | 6.0 | 6.0 | 0.00 | 0.00 | 0.00 | 96 | 911.0 |
| 20260906191125 | 70 | 28 | 6.0 | 6.0 | 0.00 | 0.00 | 0.00 | 96 | 911.0 |
| 20260906190624 | 70 | 33 | 6.0 | 7.0 | 0.00 | 0.00 | 0.00 | 96 | 911.0 |
| 20260906190525 | 70 | 26 | 5.0 | 7.0 | 0.00 | 0.00 | 0.00 | 96 | 911.0 |
| 20260906190124 | 70 | 21 | 6.0 | 7.0 | 0.00 | 0.00 | 0.00 | 97 | 911.1 |
| 20260906185925 | 70 | 28 | 6.0 | 7.0 | 0.00 | 0.00 | 0.00 | 97 | 911.1 |
| 20260906185624 | 70 | 26 | 6.0 | 7.0 | 0.00 | 0.00 | 0.00 | 97 | 911.1 |
| 20260906185325 | 70 | 24 | 6.0 | 7.0 | 0.00 | 0.00 | 0.00 | 97 | 911.1 |
| 20260906185124 | 70 | 25 | 6.0 | 7.0 | 0.00 | 0.00 | 0.00 | 97 | 911.0 |
| 20260906184725 | 70 | 27 | 6.0 | 7.0 | 0.00 | 0.00 | 0.00 | 97 | 911.1 |
| 20260906184624 | 70 | 26 | 6.0 | 7.0 | 0.00 | 0.00 | 0.00 | 97 | 911.1 |
| 20260906184126 | 70 | 28 | 6.0 | 6.0 | 0.00 | 0.00 | 0.00 | 97 | 911.1 |
| 20260906183623 | 69 | 39 | 5.0 | 6.0 | 0.00 | 0.00 | 0.00 | 97 | 911.2 |
| 20260906183525 | 69 | 16 | 4.0 | 6.0 | 0.00 | 0.00 | 0.00 | 97 | 911.2 |
| 20260906183123 | 69 | 38 | 4.0 | 5.0 | 0.00 | 0.00 | 0.00 | 97 | 911.3 |
| 20260906182925 | 69 | 41 | 4.0 | 4.0 | 0.00 | 0.00 | 0.00 | 97 | 911.3 |
| 20260906182623 | 69 | 45 | 3.0 | 4.0 | 0.00 | 0.00 | 0.00 | 97 | 911.3 |
| 20260906182123 | 69 | 47 | 4.0 | 4.0 | 0.00 | 0.00 | 0.00 | 97 | 911.4 |
| 20260906181725 | 69 | 42 | 3.0 | 4.0 | 0.00 | 0.00 | 0.00 | 97 | 911.4 |
| 20260906181623 | 69 | 40 | 2.0 | 4.0 | 0.00 | 0.00 | 0.00 | 97 | 911.5 |
| 20260906181127 | 69 | 40 | 3.0 | 4.0 | 0.00 | 0.00 | 0.00 | 97 | 911.4 |
| 20260906181125 | 69 | 43 | 3.0 | 4.0 | 0.00 | 0.00 | 0.00 | 97 | 911.5 |
| 20260906180623 | 69 | 44 | 3.0 | 4.0 | 0.00 | 0.00 | 0.00 | 97 | 911.5 |
| 20260906180524 | 69 | 32 | 3.0 | 4.0 | 0.00 | 0.00 | 0.00 | 97 | 911.4 |
| 20260906180123 | 69 | 41 | 3.0 | 4.0 | 0.00 | 0.00 | 0.00 | 97 | 911.5 |
| 20260906175925 | 69 | 45 | 3.0 | 4.0 | 0.00 | 0.00 | 0.00 | 97 | 911.5 |
| 20260906175623 | 69 | 42 | 2.0 | 3.0 | 0.00 | 0.00 | 0.00 | 97 | 911.5 |
| 20260906175325 | 69 | 32 | 2.0 | 3.0 | 0.00 | 0.00 | 0.00 | 97 | 911.5 |
| 20260906175123 | 69 | 45 | 2.0 | 3.0 | 0.00 | 0.00 | 0.00 | 97 | 911.6 |
| 20260906174725 | 69 | 38 | 2.0 | 3.0 | 0.00 | 0.00 | 0.00 | 97 | 911.6 |
| 20260906174623 | 69 | 42 | 3.0 | 4.0 | 0.00 | 0.00 | 0.00 | 97 | 911.6 |
| 20260906174125 | 69 | 61 | 2.0 | 4.0 | 0.00 | 0.00 | 0.00 | 97 | 911.5 |
| 20260906174123 | 69 | 59 | 2.0 | 4.0 | 0.00 | 0.00 | 0.00 | 97 | 911.5 |
| 20260906173623 | 69 | 38 | 0.0 | 3.0 | 0.00 | 0.00 | 0.00 | 97 | 911.6 |
| 20260906173123 | 69 | 41 | 4.0 | 5.0 | 0.00 | 0.00 | 0.00 | 97 | 911.6 |
| 20260906172924 | 69 | 44 | 4.0 | 5.0 | 0.00 | 0.00 | 0.00 | 97 | 911.6 |
| 20260906172623 | 69 | 43 | 1.0 | 5.0 | 0.00 | 0.00 | 0.00 | 98 | 911.6 |
| 20260906161126 | 70 | 46 | 5.0 | 7.0 | 0.00 | 0.00 | 0.00 | 97 | 911.9 |
| 20260906161124 | 70 | 48 | 5.0 | 7.0 | 0.00 | 0.00 | 0.00 | 97 | 911.9 |
| 20260906160622 | 70 | 38 | 6.0 | 7.0 | 0.00 | 0.00 | 0.00 | 97 | 911.9 |
| 20260906160524 | 69 | 55 | 5.0 | 7.0 | 0.00 | 0.00 | 0.00 | 97 | 911.9 |
| 20260906152622 | 69 | 57 | 3.0 | 8.0 | 0.00 | 0.00 | 0.00 | 97 | 912.1 |
| 20260906150523 | 69 | 50 | 0.0 | 6.0 | 0.00 | 0.00 | 0.00 | 97 | 912.2 |
| 20260906150122 | 69 | 53 | 1.0 | 7.0 | 0.00 | 0.00 | 0.00 | 97 | 912.3 |
| 20260906145622 | 70 | 53 | 6.0 | 7.0 | 0.00 | 0.00 | 0.00 | 96 | 912.3 |
| 20260906145122 | 69 | 48 | 0.0 | 8.0 | 0.00 | 0.00 | 0.00 | 97 | 912.2 |
| 20260906144723 | 70 | 49 | 5.0 | 8.0 | 0.00 | 0.00 | 0.00 | 96 | 912.3 |
| 20260906144622 | 70 | 56 | 1.0 | 7.0 | 0.00 | 0.00 | 0.00 | 96 | 912.3 |
| 20260906144123 | 69 | 56 | 4.0 | 7.0 | 0.00 | 0.00 | 0.00 | 96 | 912.3 |
| 20260906143622 | 70 | 60 | 6.0 | 7.0 | 0.00 | 0.00 | 0.00 | 95 | 912.4 |
| 20260906143523 | 70 | 42 | 6.0 | 7.0 | 0.00 | 0.00 | 0.00 | 96 | 912.4 |
| 20260906143122 | 70 | 52 | 5.0 | 7.0 | 0.00 | 0.00 | 0.00 | 95 | 912.4 |
| 20260906142923 | 70 | 56 | 6.0 | 7.0 | 0.00 | 0.00 | 0.00 | 95 | 912.5 |
| 20260906142622 | 70 | 51 | 6.0 | 7.0 | 0.00 | 0.00 | 0.00 | 95 | 912.5 |
| 20260906142323 | 70 | 45 | 5.0 | 7.0 | 0.00 | 0.00 | 0.00 | 95 | 912.5 |
| 20260906141723 | 70 | 42 | 5.0 | 7.0 | 0.00 | 0.00 | 0.00 | 95 | 912.6 |
| 20260906141623 | 70 | 44 | 5.0 | 7.0 | 0.00 | 0.00 | 0.00 | 95 | 912.6 |
| 20260906141125 | 70 | 32 | 5.0 | 7.0 | 0.00 | 0.00 | 0.00 | 95 | 912.6 |
| 20260906140523 | 70 | 55 | 5.0 | 7.0 | 0.00 | 0.00 | 0.00 | 95 | 912.4 |
| 20260906140121 | 70 | 52 | 6.0 | 8.0 | 0.00 | 0.00 | 0.00 | 95 | 912.4 |
| 20260906135923 | 70 | 51 | 6.0 | 9.0 | 0.00 | 0.00 | 0.00 | 95 | 912.4 |
| 20260906135621 | 70 | 44 | 6.0 | 9.0 | 0.00 | 0.00 | 0.00 | 95 | 912.3 |
| 20260906135323 | 70 | 53 | 7.0 | 9.0 | 0.00 | 0.00 | 0.00 | 94 | 912.2 |
| 20260906135121 | 70 | 51 | 8.0 | 9.0 | 0.00 | 0.00 | 0.00 | 94 | 912.3 |
| 20260906134722 | 70 | 51 | 7.0 | 9.0 | 0.00 | 0.00 | 0.00 | 94 | 912.2 |
| 20260906134621 | 70 | 46 | 8.0 | 9.0 | 0.00 | 0.00 | 0.00 | 94 | 912.2 |
| 20260906134123 | 70 | 52 | 2.0 | 8.0 | 0.00 | 0.00 | 0.00 | 94 | 912.1 |
| 20260906134121 | 70 | 54 | 2.0 | 8.0 | 0.00 | 0.00 | 0.00 | 94 | 912.1 |
| 20260906133621 | 70 | 46 | 3.0 | 9.0 | 0.00 | 0.00 | 0.00 | 95 | 912.1 |
| 20260906133524 | 70 | 46 | 0.0 | 0.0 | 0.00 | 0.00 | 0.00 | 95 | 912.1 |
| 20260906132922 | 70 | 57 | 8.0 | 9.0 | 0.00 | 0.00 | 0.00 | 95 | 912.2 |
| 20260906132621 | 70 | 57 | 8.0 | 9.0 | 0.00 | 0.00 | 0.00 | 94 | 912.2 |
| 20260906132322 | 70 | 60 | 5.0 | 9.0 | 0.00 | 0.00 | 0.00 | 94 | 912.2 |
| 20260906132121 | 70 | 56 | 7.0 | 8.0 | 0.00 | 0.00 | 0.00 | 94 | 912.2 |
| 20260906131722 | 70 | 47 | 7.0 | 9.0 | 0.00 | 0.00 | 0.00 | 94 | 912.2 |
| 20260906131621 | 70 | 70 | 7.0 | 8.0 | 0.00 | 0.00 | 0.00 | 94 | 912.2 |
| 20260906131123 | 70 | 44 | 8.0 | 10.0 | 0.00 | 0.00 | 0.00 | 94 | 912.2 |
| 20260906131121 | 70 | 61 | 8.0 | 10.0 | 0.00 | 0.00 | 0.00 | 94 | 912.2 |
| 20260906130621 | 70 | 47 | 8.0 | 10.0 | 0.00 | 0.00 | 0.00 | 93 | 912.2 |
| 20260906130523 | 70 | 47 | 5.0 | 10.0 | 0.00 | 0.00 | 0.00 | 94 | 912.2 |
| 20260906130121 | 70 | 56 | 8.0 | 10.0 | 0.00 | 0.00 | 0.00 | 93 | 912.2 |
| 20260906125922 | 70 | 50 | 8.0 | 10.0 | 0.00 | 0.00 | 0.00 | 93 | 912.2 |
| 20260906125621 | 70 | 40 | 6.0 | 10.0 | 0.00 | 0.00 | 0.00 | 93 | 912.1 |
| 20260906125121 | 70 | 58 | 4.0 | 10.0 | 0.00 | 0.00 | 0.00 | 93 | 912.1 |
| 20260906124722 | 70 | 52 | 9.0 | 10.0 | 0.00 | 0.00 | 0.00 | 93 | 912.0 |
| 20260906124621 | 70 | 65 | 9.0 | 10.0 | 0.00 | 0.00 | 0.00 | 93 | 912.0 |
| 20260906124122 | 70 | 52 | 8.0 | 9.0 | 0.00 | 0.00 | 0.00 | 95 | 912.0 |
| 20260906123621 | 70 | 60 | 9.0 | 10.0 | 0.00 | 0.00 | 0.00 | 95 | 912.0 |
| 20260906123522 | 70 | 55 | 9.0 | 10.0 | 0.00 | 0.00 | 0.00 | 95 | 911.9 |
| 20260906123121 | 70 | 61 | 9.0 | 10.0 | 0.00 | 0.00 | 0.00 | 95 | 912.0 |
| 20260906122922 | 70 | 57 | 8.0 | 10.0 | 0.00 | 0.00 | 0.00 | 95 | 911.9 |
| 20260906122620 | 70 | 67 | 8.0 | 10.0 | 0.00 | 0.00 | 0.00 | 96 | 911.9 |
| 20260906122322 | 70 | 51 | 8.0 | 10.0 | 0.00 | 0.00 | 0.00 | 96 | 911.9 |
| 20260906122121 | 70 | 53 | 9.0 | 10.0 | 0.00 | 0.00 | 0.00 | 96 | 911.8 |
| 20260906121722 | 70 | 57 | 0.0 | 9.0 | 0.00 | 0.00 | 0.00 | 96 | 911.8 |
| 20260906121621 | 70 | 70 | 8.0 | 9.0 | 0.00 | 0.00 | 0.00 | 96 | 911.8 |
| 20260906121123 | 70 | 59 | 7.0 | 8.0 | 0.00 | 0.00 | 0.00 | 97 | 911.7 |
| 20260906121120 | 70 | 56 | 7.0 | 8.0 | 0.00 | 0.00 | 0.00 | 97 | 911.7 |
| 20260906120621 | 70 | 53 | 0.0 | 7.0 | 0.00 | 0.00 | 0.00 | 97 | 911.6 |
| 20260906120522 | 70 | 59 | 6.0 | 7.0 | 0.00 | 0.00 | 0.00 | 97 | 911.7 |
| 20260906120120 | 70 | 49 | 6.0 | 6.0 | 0.00 | 0.00 | 0.00 | 97 | 911.7 |
| 20260906115922 | 70 | 53 | 5.0 | 6.0 | 0.00 | 0.00 | 0.00 | 97 | 911.7 |
| 20260906115620 | 70 | 50 | 5.0 | 6.0 | 0.00 | 0.00 | 0.00 | 97 | 911.6 |
| 20260906115322 | 70 | 54 | 5.0 | 6.0 | 0.00 | 0.00 | 0.00 | 97 | 911.6 |
| 20260906115120 | 70 | 56 | 6.0 | 7.0 | 0.00 | 0.00 | 0.00 | 97 | 911.6 |
| 20260906114721 | 70 | 45 | 5.0 | 7.0 | 0.00 | 0.00 | 0.00 | 97 | 911.5 |
| 20260906114620 | 70 | 45 | 5.0 | 7.0 | 0.00 | 0.00 | 0.00 | 97 | 911.5 |
| 20260906114122 | 70 | 41 | 0.0 | 6.0 | 0.00 | 0.00 | 0.00 | 97 | 911.5 |
| 20260906114120 | 70 | 45 | 0.0 | 6.0 | 0.00 | 0.00 | 0.00 | 97 | 911.5 |
| 20260906113620 | 70 | 47 | 5.0 | 7.0 | 0.00 | 0.00 | 0.00 | 97 | 911.4 |
| 20260906113521 | 70 | 51 | 6.0 | 7.0 | 0.00 | 0.00 | 0.00 | 97 | 911.4 |
| 20260906113120 | 70 | 39 | 5.0 | 6.0 | 0.00 | 0.00 | 0.00 | 97 | 911.4 |
| 20260906112921 | 70 | 57 | 0.0 | 6.0 | 0.00 | 0.00 | 0.00 | 97 | 911.4 |
| 20260906112620 | 70 | 51 | 6.0 | 7.0 | 0.00 | 0.00 | 0.00 | 97 | 911.4 |
| 20260906112322 | 70 | 48 | 6.0 | 8.0 | 0.00 | 0.00 | 0.00 | 97 | 911.4 |
| 20260906112120 | 70 | 35 | 6.0 | 7.0 | 0.00 | 0.00 | 0.00 | 96 | 911.4 |
| 20260906111721 | 70 | 56 | 7.0 | 8.0 | 0.00 | 0.00 | 0.00 | 96 | 911.3 |
| 20260906111620 | 70 | 46 | 7.0 | 8.0 | 0.00 | 0.00 | 0.00 | 96 | 911.3 |
| 20260906111122 | 70 | 46 | 6.0 | 7.0 | 0.00 | 0.00 | 0.00 | 96 | 911.3 |
| 20260906111120 | 70 | 57 | 6.0 | 7.0 | 0.00 | 0.00 | 0.00 | 96 | 911.3 |
| 20260906110620 | 70 | 42 | 5.0 | 6.0 | 0.00 | 0.00 | 0.00 | 96 | 911.3 |
| 20260906110521 | 70 | 42 | 5.0 | 6.0 | 0.00 | 0.00 | 0.00 | 96 | 911.3 |
| 20260906110120 | 70 | 26 | 5.0 | 6.0 | 0.00 | 0.00 | 0.00 | 96 | 911.4 |
| 20260906105921 | 70 | 49 | 1.0 | 6.0 | 0.00 | 0.00 | 0.00 | 96 | 911.3 |
| 20260906105620 | 70 | 45 | 6.0 | 7.0 | 0.00 | 0.00 | 0.00 | 96 | 911.2 |
| 20260906105321 | 70 | 42 | 5.0 | 6.0 | 0.00 | 0.00 | 0.00 | 96 | 911.2 |
| 20260906105120 | 70 | 45 | 5.0 | 6.0 | 0.00 | 0.00 | 0.00 | 96 | 911.2 |
| 20260906104721 | 70 | 52 | 5.0 | 7.0 | 0.00 | 0.00 | 0.00 | 96 | 911.2 |
| 20260906104620 | 70 | 44 | 5.0 | 7.0 | 0.00 | 0.00 | 0.00 | 96 | 911.2 |
| 20260906104122 | 70 | 48 | 5.0 | 7.0 | 0.00 | 0.00 | 0.00 | 96 | 911.1 |
| 20260906104120 | 70 | 45 | 5.0 | 7.0 | 0.00 | 0.00 | 0.00 | 96 | 911.1 |
| 20260906103620 | 70 | 41 | 2.0 | 5.0 | 0.00 | 0.00 | 0.00 | 96 | 911.1 |
| 20260906103521 | 70 | 48 | 0.0 | 5.0 | 0.00 | 0.00 | 0.00 | 96 | 911.1 |
| 20260906103120 | 70 | 45 | 3.0 | 6.0 | 0.00 | 0.00 | 0.00 | 96 | 911.1 |
| 20260906102921 | 70 | 38 | 4.0 | 6.0 | 0.00 | 0.00 | 0.00 | 96 | 911.1 |
| 20260906102620 | 70 | 51 | 5.0 | 6.0 | 0.00 | 0.00 | 0.00 | 96 | 911.1 |
| 20260906102321 | 70 | 47 | 4.0 | 4.0 | 0.00 | 0.00 | 0.00 | 95 | 911.0 |
| 20260906102120 | 70 | 53 | 3.0 | 4.0 | 0.00 | 0.00 | 0.00 | 95 | 911.1 |
| 20260906101721 | 70 | 79 | 2.0 | 2.0 | 0.00 | 0.00 | 0.00 | 94 | 911.0 |
| 20260906101620 | 70 | 99 | 2.0 | 2.0 | 0.00 | 0.00 | 0.00 | 94 | 911.0 |
| 20260906101121 | 70 | 85 | 1.0 | 2.0 | 0.00 | 0.00 | 0.00 | 94 | 911.0 |
| 20260906100619 | 71 | 92 | 2.0 | 3.0 | 0.00 | 0.00 | 0.00 | 95 | 910.9 |
| 20260906100120 | 71 | 76 | 0.0 | 1.0 | 0.00 | 0.00 | 0.00 | 96 | 910.9 |
| 20260906095921 | 71 | 30 | 1.0 | 2.0 | 0.00 | 0.00 | 0.00 | 96 | 910.9 |
| 20260906095619 | 71 | 64 | 1.0 | 2.0 | 0.00 | 0.00 | 0.00 | 96 | 911.0 |
| 20260906095321 | 71 | 111 | 1.0 | 2.0 | 0.00 | 0.00 | 0.00 | 96 | 911.0 |
| 20260906095120 | 71 | 95 | 3.0 | 3.0 | 0.00 | 0.00 | 0.00 | 96 | 910.9 |
| 20260906094721 | 71 | 89 | 3.0 | 3.0 | 0.00 | 0.00 | 0.00 | 96 | 911.0 |
| 20260906094619 | 71 | 90 | 2.0 | 3.0 | 0.00 | 0.00 | 0.00 | 96 | 911.0 |
| 20260906094119 | 71 | 110 | 2.0 | 3.0 | 0.00 | 0.00 | 0.00 | 96 | 910.9 |
| 20260906093619 | 71 | 86 | 2.0 | 3.0 | 0.00 | 0.00 | 0.00 | 96 | 910.8 |
| 20260906093521 | 71 | 101 | 2.0 | 3.0 | 0.00 | 0.00 | 0.00 | 96 | 910.9 |
| 20260906092921 | 71 | 127 | 2.0 | 3.0 | 0.00 | 0.00 | 0.00 | 96 | 910.8 |
| 20260906092619 | 71 | 144 | 2.0 | 3.0 | 0.00 | 0.00 | 0.00 | 96 | 910.8 |
| 20260906092320 | 71 | 127 | 3.0 | 3.0 | 0.00 | 0.00 | 0.00 | 96 | 910.8 |
| 20260906092119 | 71 | 120 | 1.0 | 3.0 | 0.00 | 0.00 | 0.00 | 96 | 910.8 |
| 20260906091720 | 71 | 133 | 0.0 | 2.0 | 0.00 | 0.00 | 0.00 | 96 | 910.8 |
| 20260906091121 | 71 | 70 | 1.0 | 3.0 | 0.00 | 0.00 | 0.00 | 95 | 910.8 |
| 20260906091119 | 71 | 69 | 1.0 | 3.0 | 0.00 | 0.00 | 0.00 | 95 | 910.8 |
| 20260906090619 | 71 | 64 | 1.0 | 1.0 | 0.00 | 0.00 | 0.00 | 95 | 910.8 |
| 20260906090520 | 71 | 64 | 0.0 | 1.0 | 0.00 | 0.00 | 0.00 | 95 | 910.8 |
| 20260906090119 | 71 | 66 | 2.0 | 3.0 | 0.00 | 0.00 | 0.00 | 95 | 910.8 |
| 20260906085920 | 71 | 53 | 1.0 | 2.0 | 0.00 | 0.00 | 0.00 | 95 | 910.8 |
| 20260906085320 | 71 | 61 | 1.0 | 2.0 | 0.00 | 0.00 | 0.00 | 95 | 910.7 |
| 20260906085119 | 71 | 97 | 1.0 | 2.0 | 0.00 | 0.00 | 0.00 | 95 | 910.8 |
| 20260906084720 | 71 | 85 | 1.0 | 2.0 | 0.00 | 0.00 | 0.00 | 95 | 910.8 |
| 20260906084619 | 71 | 58 | 1.0 | 2.0 | 0.00 | 0.00 | 0.00 | 95 | 910.8 |
| 20260906084122 | 72 | 30 | 3.0 | 4.0 | 0.00 | 0.00 | 0.00 | 95 | 910.7 |
| 20260906084120 | 72 | 22 | 3.0 | 4.0 | 0.00 | 0.00 | 0.00 | 95 | 910.7 |
| 20260906083619 | 72 | 76 | 2.0 | 3.0 | 0.00 | 0.00 | 0.00 | 95 | 910.7 |
| 20260906083520 | 72 | 71 | 2.0 | 3.0 | 0.00 | 0.00 | 0.00 | 95 | 910.7 |
| 20260906083119 | 72 | 60 | 2.0 | 4.0 | 0.00 | 0.00 | 0.00 | 94 | 910.7 |
| 20260906082920 | 72 | 88 | 0.0 | 3.0 | 0.00 | 0.00 | 0.00 | 94 | 910.7 |
| 20260906082619 | 73 | 88 | 2.0 | 3.0 | 0.00 | 0.00 | 0.00 | 94 | 910.7 |
| 20260906082119 | 73 | 160 | 1.0 | 3.0 | 0.00 | 0.00 | 0.00 | 93 | 910.7 |
| 20260906081720 | 73 | 104 | 2.0 | 4.0 | 0.00 | 0.00 | 0.00 | 92 | 910.7 |
| 20260906081619 | 73 | 107 | 2.0 | 4.0 | 0.00 | 0.00 | 0.00 | 92 | 910.7 |
| 20260906081120 | 73 | 171 | 0.0 | 2.0 | 0.00 | 0.00 | 0.00 | 93 | 910.6 |
| 20260906080619 | 74 | 121 | 2.0 | 4.0 | 0.00 | 0.00 | 0.00 | 92 | 910.5 |
| 20260906080520 | 74 | 162 | 2.0 | 4.0 | 0.00 | 0.00 | 0.00 | 92 | 910.5 |
| 20260906080119 | 74 | 160 | 1.0 | 4.0 | 0.00 | 0.00 | 0.00 | 92 | 910.6 |
| 20260906075920 | 74 | 174 | 0.0 | 3.0 | 0.00 | 0.00 | 0.00 | 92 | 910.6 |
| 20260906075619 | 74 | 204 | 1.0 | 4.0 | 0.00 | 0.00 | 0.00 | 92 | 910.5 |
| 20260906075320 | 73 | 108 | 3.0 | 4.0 | 0.00 | 0.00 | 0.00 | 93 | 910.6 |
| 20260906075118 | 73 | 256 | 2.0 | 4.0 | 0.00 | 0.00 | 0.00 | 93 | 910.5 |
| 20260906074720 | 73 | 218 | 3.0 | 5.0 | 0.00 | 0.00 | 0.00 | 94 | 910.6 |
| 20260906074618 | 73 | 157 | 3.0 | 5.0 | 0.00 | 0.00 | 0.00 | 94 | 910.6 |
| 20260906074120 | 72 | 219 | 2.0 | 4.0 | 0.00 | 0.00 | 0.00 | 93 | 910.7 |
| 20260906074118 | 72 | 218 | 2.0 | 4.0 | 0.00 | 0.00 | 0.00 | 93 | 910.7 |
| 20260906073618 | 73 | 186 | 4.0 | 6.0 | 0.00 | 0.00 | 0.00 | 93 | 910.7 |
| 20260906073520 | 73 | 180 | 4.0 | 6.0 | 0.00 | 0.00 | 0.00 | 93 | 910.7 |
| 20260906073118 | 73 | 194 | 2.0 | 4.0 | 0.00 | 0.00 | 0.00 | 94 | 910.6 |
| 20260906072920 | 73 | 120 | 2.0 | 5.0 | 0.00 | 0.00 | 0.00 | 94 | 910.6 |
| 20260906072618 | 73 | 100 | 1.0 | 5.0 | 0.00 | 0.00 | 0.00 | 93 | 910.7 |
| 20260906072320 | 73 | 73 | 2.0 | 5.0 | 0.00 | 0.00 | 0.00 | 93 | 910.6 |
| 20260906072118 | 73 | 62 | 3.0 | 5.0 | 0.00 | 0.00 | 0.00 | 93 | 910.6 |
| 20260906071719 | 72 | 111 | 1.0 | 3.0 | 0.00 | 0.00 | 0.00 | 94 | 910.6 |
| 20260906071618 | 72 | 103 | 0.0 | 2.0 | 0.00 | 0.00 | 0.00 | 94 | 910.6 |
| 20260906071118 | 71 | 6 | 1.0 | 5.0 | 0.00 | 0.00 | 0.00 | 95 | 910.7 |
| 20260906070618 | 71 | 40 | 1.0 | 7.0 | 0.00 | 0.00 | 0.00 | 95 | 910.8 |
| 20260906070519 | 71 | 32 | 2.0 | 7.0 | 0.00 | 0.00 | 0.00 | 95 | 910.7 |
| 20260906070118 | 71 | 90 | 5.0 | 7.0 | 0.00 | 0.00 | 0.00 | 95 | 910.8 |
| 20260906065919 | 71 | 79 | 4.0 | 6.0 | 0.00 | 0.00 | 0.00 | 95 | 910.8 |
| 20260906065618 | 71 | 88 | 2.0 | 4.0 | 0.00 | 0.00 | 0.00 | 95 | 910.8 |
| 20260906065319 | 72 | 96 | 2.0 | 4.0 | 0.00 | 0.00 | 0.00 | 95 | 910.8 |
| 20260906065118 | 71 | 129 | 2.0 | 5.0 | 0.00 | 0.00 | 0.00 | 95 | 910.8 |
| 20260906064719 | 72 | 59 | 1.0 | 5.0 | 0.00 | 0.00 | 0.00 | 94 | 910.8 |
| 20260906064618 | 72 | 72 | 2.0 | 5.0 | 0.00 | 0.00 | 0.00 | 94 | 910.8 |
| 20260906064120 | 72 | 70 | 4.0 | 6.0 | 0.00 | 0.00 | 0.00 | 93 | 910.8 |
| 20260906064118 | 72 | 67 | 4.0 | 6.0 | 0.00 | 0.00 | 0.00 | 93 | 910.9 |
| 20260906063618 | 74 | 97 | 2.0 | 6.0 | 0.00 | 0.00 | 0.00 | 91 | 910.9 |
| 20260906063519 | 74 | 71 | 3.0 | 6.0 | 0.00 | 0.00 | 0.00 | 90 | 910.9 |
| 20260906063118 | 76 | 64 | 2.0 | 5.0 | 0.00 | 0.00 | 0.00 | 89 | 910.9 |
| 20260906062919 | 76 | 212 | 2.0 | 5.0 | 0.00 | 0.00 | 0.00 | 88 | 911.0 |
| 20260906062618 | 75 | 171 | 1.0 | 4.0 | 0.00 | 0.00 | 0.00 | 90 | 911.0 |
| 20260906062319 | 74 | 153 | 3.0 | 5.0 | 0.00 | 0.00 | 0.00 | 93 | 911.1 |
| 20260906062119 | 72 | 74 | 2.0 | 4.0 | 0.00 | 0.00 | 0.00 | 92 | 911.1 |
| 20260906061719 | 71 | 89 | 2.0 | 3.0 | 0.00 | 0.00 | 0.00 | 93 | 911.2 |
| 20260906061618 | 71 | 69 | 2.0 | 3.0 | 0.00 | 0.00 | 0.00 | 94 | 911.2 |
| 20260906061118 | 71 | 272 | 0.0 | 2.0 | 0.00 | 0.00 | 0.00 | 95 | 911.2 |
| 20260906060618 | 71 | 322 | 2.0 | 5.0 | 0.00 | 0.00 | 0.00 | 94 | 911.3 |
| 20260906060519 | 71 | 261 | 2.0 | 5.0 | 0.00 | 0.00 | 0.00 | 94 | 911.3 |
| 20260906060117 | 72 | 144 | 2.0 | 4.0 | 0.00 | 0.00 | 0.00 | 93 | 911.3 |
| 20260906055919 | 72 | 126 | 1.0 | 4.0 | 0.00 | 0.00 | 0.00 | 93 | 911.4 |
| 20260906055617 | 73 | 211 | 1.0 | 6.0 | 0.00 | 0.00 | 0.00 | 93 | 911.4 |
| 20260906055319 | 74 | 253 | 2.0 | 6.0 | 0.00 | 0.00 | 0.00 | 91 | 911.4 |
| 20260906055117 | 74 | 274 | 3.0 | 6.0 | 0.00 | 0.00 | 0.00 | 93 | 911.4 |
| 20260906054719 | 75 | 137 | 0.0 | 4.0 | 0.00 | 0.00 | 0.00 | 91 | 911.4 |
| 20260906054617 | 75 | 133 | 4.0 | 8.0 | 0.00 | 0.00 | 0.00 | 90 | 911.4 |
| 20260906054119 | 76 | 123 | 0.0 | 4.0 | 0.00 | 0.00 | 0.00 | 91 | 911.5 |
| 20260906053617 | 73 | 136 | 1.0 | 5.0 | 0.00 | 0.00 | 0.00 | 93 | 911.5 |
| 20260906053519 | 73 | 160 | 0.0 | 0.0 | 0.00 | 0.00 | 0.00 | 94 | 911.5 |
| 20260906053117 | 72 | 77 | 1.0 | 4.0 | 0.00 | 0.00 | 0.00 | 93 | 911.5 |
| 20260906052618 | 72 | 70 | 3.0 | 5.0 | 0.00 | 0.00 | 0.00 | 94 | 911.5 |
| 20260906052319 | 72 | 92 | 3.0 | 5.0 | 0.00 | 0.00 | 0.00 | 94 | 911.6 |
| 20260906052117 | 71 | 80 | 1.0 | 3.0 | 0.00 | 0.00 | 0.00 | 94 | 911.6 |
| 20260906051719 | 71 | 65 | 3.0 | 5.0 | 0.00 | 0.00 | 0.00 | 93 | 911.7 |
| 20260906051617 | 71 | 74 | 3.0 | 5.0 | 0.00 | 0.00 | 0.00 | 93 | 911.6 |
| 20260906051119 | 73 | 107 | 1.0 | 4.0 | 0.00 | 0.00 | 0.00 | 93 | 911.7 |
| 20260906051117 | 73 | 105 | 1.0 | 4.0 | 0.00 | 0.00 | 0.00 | 93 | 911.7 |
| 20260906050617 | 73 | 207 | 4.0 | 7.0 | 0.00 | 0.00 | 0.00 | 92 | 911.6 |
| 20260906050519 | 73 | 220 | 3.0 | 7.0 | 0.00 | 0.00 | 0.00 | 92 | 911.7 |
| 20260906050117 | 73 | 129 | 0.0 | 4.0 | 0.00 | 0.00 | 0.00 | 92 | 911.8 |
| 20260906045919 | 74 | 108 | 0.0 | 0.0 | 0.00 | 0.00 | 0.00 | 92 | 911.8 |
| 20260906044718 | 74 | 123 | 3.0 | 5.0 | 0.00 | 0.00 | 0.00 | 91 | 911.9 |
| 20260906044121 | 73 | 205 | 4.0 | 5.0 | 0.00 | 0.00 | 0.00 | 90 | 912.1 |
| 20260906044119 | 73 | 211 | 4.0 | 5.0 | 0.00 | 0.00 | 0.00 | 90 | 912.0 |
| 20260906043617 | 73 | 231 | 3.0 | 4.0 | 0.00 | 0.00 | 0.00 | 91 | 912.0 |
| 20260906043518 | 73 | 162 | 3.0 | 4.0 | 0.00 | 0.00 | 0.00 | 92 | 912.1 |
| 20260906043117 | 73 | 215 | 4.0 | 6.0 | 0.00 | 0.00 | 0.00 | 90 | 912.1 |
| 20260906042918 | 74 | 233 | 3.0 | 6.0 | 0.00 | 0.00 | 0.00 | 90 | 912.1 |
| 20260906042617 | 75 | 228 | 3.0 | 6.0 | 0.00 | 0.00 | 0.00 | 90 | 912.1 |
| 20260906042318 | 74 | 206 | 3.0 | 6.0 | 0.00 | 0.00 | 0.00 | 89 | 912.1 |
| 20260906042117 | 75 | 227 | 4.0 | 6.0 | 0.00 | 0.00 | 0.00 | 88 | 912.1 |
| 20260906041718 | 74 | 272 | 1.0 | 3.0 | 0.00 | 0.00 | 0.00 | 91 | 912.0 |
| 20260906041617 | 74 | 296 | 1.0 | 3.0 | 0.00 | 0.00 | 0.00 | 91 | 912.1 |
| 20260906041119 | 73 | 275 | 3.0 | 5.0 | 0.00 | 0.00 | 0.00 | 90 | 912.1 |
| 20260906041117 | 73 | 269 | 3.0 | 5.0 | 0.00 | 0.00 | 0.00 | 90 | 912.1 |
| 20260906040617 | 72 | 265 | 3.0 | 5.0 | 0.00 | 0.00 | 0.00 | 90 | 912.1 |
| 20260906040518 | 72 | 249 | 3.0 | 5.0 | 0.00 | 0.00 | 0.00 | 90 | 912.0 |
| 20260906040117 | 72 | 256 | 2.0 | 5.0 | 0.00 | 0.00 | 0.00 | 89 | 912.1 |
| 20260906035918 | 72 | 256 | 3.0 | 5.0 | 0.00 | 0.00 | 0.00 | 89 | 912.1 |
| 20260906035617 | 73 | 160 | 2.0 | 4.0 | 0.00 | 0.00 | 0.00 | 89 | 912.1 |
| 20260906035318 | 73 | 304 | 1.0 | 3.0 | 0.00 | 0.00 | 0.00 | 91 | 912.1 |
| 20260906035117 | 73 | 162 | 0.0 | 2.0 | 0.00 | 0.00 | 0.00 | 92 | 912.1 |
| 20260906034718 | 72 | 301 | 2.0 | 4.0 | 0.00 | 0.00 | 0.00 | 92 | 912.2 |
| 20260906034617 | 72 | 307 | 2.0 | 4.0 | 0.00 | 0.00 | 0.00 | 92 | 912.2 |
| 20260906034117 | 71 | 247 | 2.0 | 4.0 | 0.00 | 0.00 | 0.00 | 92 | 912.1 |
| 20260906033518 | 72 | 268 | 0.0 | 3.0 | 0.00 | 0.00 | 0.00 | 93 | 912.2 |
| 20260906032616 | 71 | 134 | 2.0 | 5.0 | 0.00 | 0.00 | 0.00 | 94 | 912.3 |
| 20260906032318 | 72 | 265 | 2.0 | 5.0 | 0.00 | 0.00 | 0.00 | 94 | 912.2 |
| 20260906032116 | 71 | 214 | 2.0 | 5.0 | 0.00 | 0.00 | 0.00 | 93 | 912.2 |
| 20260906031718 | 71 | 260 | 1.0 | 4.0 | 0.00 | 0.00 | 0.00 | 92 | 912.3 |
| 20260906031616 | 71 | 249 | 0.0 | 3.0 | 0.00 | 0.00 | 0.00 | 92 | 912.3 |
| 20260906031118 | 71 | 256 | 1.0 | 3.0 | 0.00 | 0.00 | 0.00 | 94 | 912.3 |
| 20260906031116 | 71 | 258 | 1.0 | 3.0 | 0.00 | 0.00 | 0.00 | 94 | 912.3 |
| 20260906030618 | 71 | 229 | 2.0 | 5.0 | 0.00 | 0.00 | 0.00 | 96 | 912.3 |
| 20260906030518 | 71 | 276 | 0.0 | 3.0 | 0.00 | 0.00 | 0.00 | 96 | 912.3 |
| 20260906030116 | 70 | 228 | 2.0 | 8.0 | 0.00 | 0.00 | 0.00 | 96 | 912.4 |
| 20260906025917 | 70 | 229 | 3.0 | 8.0 | 0.00 | 0.00 | 0.00 | 95 | 912.4 |
| 20260906025616 | 70 | 242 | 4.0 | 8.0 | 0.00 | 0.00 | 0.00 | 95 | 912.4 |
| 20260906025317 | 70 | 210 | 4.0 | 8.0 | 0.00 | 0.00 | 0.00 | 95 | 912.4 |
| 20260906025116 | 71 | 240 | 3.0 | 6.0 | 0.00 | 0.00 | 0.00 | 95 | 912.4 |
| 20260906024717 | 70 | 252 | 1.0 | 5.0 | 0.00 | 0.00 | 0.00 | 94 | 912.4 |
| 20260906024616 | 71 | 244 | 4.0 | 6.0 | 0.00 | 0.00 | 0.00 | 94 | 912.4 |
| 20260906024118 | 70 | 220 | 2.0 | 5.0 | 0.00 | 0.00 | 0.00 | 92 | 912.4 |
| 20260906023616 | 71 | 244 | 3.0 | 5.0 | 0.00 | 0.00 | 0.00 | 93 | 912.4 |
| 20260906023517 | 70 | 238 | 3.0 | 5.0 | 0.00 | 0.00 | 0.00 | 93 | 912.4 |
| 20260906023116 | 70 | 261 | 0.0 | 4.0 | 0.00 | 0.00 | 0.00 | 93 | 912.4 |
| 20260906022616 | 70 | 268 | 0.0 | 3.0 | 0.00 | 0.00 | 0.00 | 93 | 912.4 |
| 20260906021717 | 69 | 248 | 0.0 | 5.0 | 0.00 | 0.00 | 0.00 | 94 | 912.3 |
| 20260906021617 | 69 | 258 | 0.0 | 4.0 | 0.00 | 0.00 | 0.00 | 95 | 912.3 |
| 20260906021117 | 69 | 258 | 4.0 | 7.0 | 0.00 | 0.00 | 0.00 | 95 | 912.3 |
| 20260906020517 | 69 | 238 | 0.0 | 5.0 | 0.00 | 0.00 | 0.00 | 96 | 912.3 |
| 20260906020116 | 68 | 281 | 0.0 | 5.0 | 0.00 | 0.00 | 0.00 | 97 | 912.3 |
| 20260906015917 | 68 | 231 | 1.0 | 7.0 | 0.00 | 0.00 | 0.00 | 96 | 912.3 |
| 20260906013616 | 68 | 276 | 1.0 | 6.0 | 0.00 | 0.00 | 0.00 | 96 | 912.4 |
| 20260906013517 | 68 | 231 | 1.0 | 6.0 | 0.00 | 0.00 | 0.00 | 96 | 912.4 |
| 20260906013115 | 68 | 222 | 1.0 | 5.0 | 0.00 | 0.00 | 0.00 | 97 | 912.4 |
| 20260906012917 | 68 | 239 | 3.0 | 6.0 | 0.00 | 0.00 | 0.00 | 96 | 912.4 |
| 20260906012616 | 68 | 222 | 5.0 | 7.0 | 0.00 | 0.00 | 0.00 | 96 | 912.4 |
| 20260906012317 | 68 | 230 | 3.0 | 6.0 | 0.00 | 0.00 | 0.00 | 96 | 912.4 |
| 20260906012115 | 68 | 225 | 2.0 | 6.0 | 0.00 | 0.00 | 0.00 | 97 | 912.4 |
| 20260906011717 | 68 | 248 | 2.0 | 6.0 | 0.00 | 0.00 | 0.00 | 97 | 912.5 |
| 20260906011117 | 68 | 217 | 0.0 | 5.0 | 0.00 | 0.00 | 0.00 | 97 | 912.5 |
| 20260906011115 | 68 | 232 | 0.0 | 5.0 | 0.00 | 0.00 | 0.00 | 97 | 912.5 |
| 20260906010615 | 68 | 232 | 3.0 | 6.0 | 0.00 | 0.00 | 0.00 | 97 | 912.4 |
| 20260906010517 | 68 | 237 | 0.0 | 4.0 | 0.00 | 0.00 | 0.00 | 97 | 912.4 |
| 20260906010116 | 68 | 219 | 1.0 | 4.0 | 0.00 | 0.00 | 0.00 | 98 | 912.4 |
| 20260906005917 | 68 | 233 | 1.0 | 5.0 | 0.00 | 0.00 | 0.00 | 98 | 912.4 |
| 20260906005615 | 68 | 269 | 0.0 | 4.0 | 0.00 | 0.00 | 0.00 | 97 | 912.4 |
| 20260906005316 | 68 | 263 | 3.0 | 5.0 | 0.00 | 0.00 | 0.00 | 97 | 912.4 |
| 20260906005115 | 68 | 245 | 3.0 | 4.0 | 0.00 | 0.00 | 0.00 | 97 | 912.4 |
| 20260906004716 | 68 | 269 | 3.0 | 5.0 | 0.00 | 0.00 | 0.00 | 98 | 912.3 |
| 20260906004615 | 68 | 252 | 3.0 | 5.0 | 0.00 | 0.00 | 0.00 | 97 | 912.3 |
| 20260906004117 | 68 | 260 | 0.0 | 2.0 | 0.00 | 0.00 | 0.00 | 98 | 912.3 |
| 20260906003615 | 68 | 244 | 3.0 | 7.0 | 0.00 | 0.00 | 0.00 | 97 | 912.2 |
| 20260906003517 | 68 | 265 | 4.0 | 7.0 | 0.00 | 0.00 | 0.00 | 97 | 912.2 |
| 20260906003115 | 68 | 262 | 5.0 | 6.0 | 0.00 | 0.00 | 0.00 | 97 | 912.0 |
| 20260906002916 | 68 | 215 | 4.0 | 6.0 | 0.00 | 0.00 | 0.00 | 97 | 912.1 |
| 20260906002615 | 68 | 256 | 4.0 | 6.0 | 0.00 | 0.00 | 0.00 | 97 | 912.1 |
| 20260906002316 | 68 | 254 | 4.0 | 6.0 | 0.00 | 0.00 | 0.00 | 97 | 912.0 |
| 20260906002115 | 68 | 251 | 4.0 | 6.0 | 0.00 | 0.00 | 0.00 | 97 | 912.0 |
| 20260906001716 | 68 | 244 | 3.0 | 6.0 | 0.00 | 0.00 | 0.00 | 97 | 912.0 |
| 20260906001615 | 68 | 255 | 4.0 | 6.0 | 0.00 | 0.00 | 0.00 | 97 | 912.0 |
| 20260906001117 | 68 | 264 | 4.0 | 6.0 | 0.00 | 0.00 | 0.00 | 97 | 912.0 |
| 20260906001115 | 68 | 258 | 4.0 | 6.0 | 0.00 | 0.00 | 0.00 | 97 | 911.9 |
| 20260906000615 | 68 | 264 | 4.0 | 7.0 | 0.00 | 0.00 | 0.00 | 97 | 911.9 |
| 20260906000516 | 68 | 255 | 4.0 | 7.0 | 0.00 | 0.00 | 0.00 | 97 | 911.9 |
| 20260906000115 | 67 | 249 | 4.0 | 7.0 | 0.00 | 0.00 | 0.00 | 97 | 911.8 |
| 20260905235916 | 67 | 239 | 5.0 | 7.0 | 0.00 | 0.00 | 0.00 | 97 | 911.7 |
| 20260905235615 | 67 | 252 | 2.0 | 7.0 | 0.00 | 0.00 | 0.00 | 97 | 911.7 |
| 20260905235316 | 67 | 260 | 5.0 | 7.0 | 0.00 | 0.00 | 0.00 | 97 | 911.6 |
| 20260905235115 | 67 | 250 | 5.0 | 7.0 | 0.00 | 0.00 | 0.00 | 97 | 911.6 |
| 20260905234716 | 67 | 235 | 5.0 | 7.0 | 0.00 | 0.00 | 0.00 | 96 | 911.7 |
| 20260905234615 | 67 | 263 | 5.0 | 7.0 | 0.00 | 0.00 | 0.00 | 96 | 911.7 |
| 20260905234116 | 67 | 261 | 5.0 | 7.0 | 0.00 | 0.00 | 0.00 | 96 | 911.6 |
| 20260905233615 | 67 | 274 | 5.0 | 7.0 | 0.00 | 0.00 | 0.00 | 96 | 911.5 |
| 20260905233516 | 67 | 274 | 5.0 | 7.0 | 0.00 | 0.00 | 0.00 | 96 | 911.5 |
| 20260905233114 | 67 | 254 | 5.0 | 8.0 | 0.00 | 0.00 | 0.00 | 96 | 911.5 |
| 20260905232916 | 67 | 254 | 5.0 | 8.0 | 0.00 | 0.00 | 0.00 | 96 | 911.4 |
| 20260905232615 | 67 | 249 | 5.0 | 8.0 | 0.00 | 0.00 | 0.00 | 96 | 911.4 |
| 20260905232316 | 67 | 248 | 5.0 | 8.0 | 0.00 | 0.00 | 0.00 | 96 | 911.3 |
| 20260905232114 | 67 | 259 | 4.0 | 8.0 | 0.00 | 0.00 | 0.00 | 96 | 911.3 |
| 20260905231716 | 67 | 261 | 6.0 | 9.0 | 0.00 | 0.00 | 0.00 | 96 | 911.3 |
| 20260905231614 | 67 | 249 | 6.0 | 9.0 | 0.00 | 0.00 | 0.00 | 96 | 911.2 |
| 20260905231116 | 67 | 272 | 6.0 | 9.0 | 0.00 | 0.00 | 0.00 | 96 | 911.2 |
| 20260905231114 | 67 | 266 | 6.0 | 9.0 | 0.00 | 0.00 | 0.00 | 96 | 911.3 |
| 20260905230614 | 67 | 263 | 6.0 | 9.0 | 0.00 | 0.00 | 0.00 | 96 | 911.2 |
| 20260905230516 | 67 | 248 | 7.0 | 9.0 | 0.00 | 0.00 | 0.00 | 96 | 911.2 |
| 20260905230114 | 67 | 248 | 6.0 | 8.0 | 0.00 | 0.00 | 0.00 | 96 | 911.2 |
| 20260905225916 | 68 | 283 | 5.0 | 7.0 | 0.00 | 0.00 | 0.00 | 96 | 911.2 |
| 20260905225614 | 68 | 206 | 5.0 | 7.0 | 0.00 | 0.00 | 0.00 | 96 | 911.2 |
| 20260905225316 | 68 | 252 | 4.0 | 8.0 | 0.00 | 0.00 | 0.00 | 96 | 911.1 |
| 20260905225114 | 68 | 225 | 4.0 | 8.0 | 0.00 | 0.00 | 0.00 | 95 | 911.1 |
| 20260905224716 | 68 | 259 | 5.0 | 8.0 | 0.00 | 0.00 | 0.00 | 95 | 911.1 |
| 20260905224614 | 68 | 255 | 5.0 | 8.0 | 0.00 | 0.00 | 0.00 | 95 | 911.1 |
| 20260905224116 | 68 | 244 | 5.0 | 8.0 | 0.00 | 0.00 | 0.00 | 95 | 911.0 |
| 20260905224114 | 68 | 248 | 5.0 | 8.0 | 0.00 | 0.00 | 0.00 | 95 | 911.1 |
| 20260905223614 | 68 | 261 | 6.0 | 8.0 | 0.00 | 0.00 | 0.00 | 95 | 911.0 |
| 20260905223516 | 68 | 244 | 6.0 | 8.0 | 0.00 | 0.00 | 0.00 | 95 | 911.0 |
| 20260905223114 | 68 | 250 | 5.0 | 7.0 | 0.00 | 0.00 | 0.00 | 96 | 910.9 |
| 20260905222915 | 68 | 224 | 6.0 | 7.0 | 0.00 | 0.00 | 0.00 | 96 | 910.9 |
| 20260905222614 | 67 | 235 | 6.0 | 7.0 | 0.00 | 0.00 | 0.00 | 96 | 910.8 |
| 20260905222315 | 67 | 216 | 6.0 | 7.0 | 0.00 | 0.00 | 0.00 | 96 | 910.9 |
| 20260905222114 | 67 | 236 | 5.0 | 7.0 | 0.00 | 0.00 | 0.00 | 96 | 910.9 |
| 20260905221716 | 67 | 273 | 5.0 | 7.0 | 0.00 | 0.00 | 0.00 | 96 | 910.8 |
| 20260905221614 | 66 | 254 | 6.0 | 7.0 | 0.00 | 0.00 | 0.00 | 96 | 910.9 |